Location: Unspecified
(0.0000°N, 0.0000°E)
Time: 06:36:17
(UTC+00:00)

Vanguard 1 - Pass Details

Date: 16 December 2018
Orbit: 654 x 3829 km, 34.2° (Epoch: 15 June)

Event Time Altitude Azimuth Distance (km) Brightness Sun altitude
Rises 00:01:02 0° 220° (SW) 6,255 14.4 -66.7°
Reaches altitude 10° 00:06:53 10° 209° (SSW) 4,616 13.6 -66.5°
Enters shadow 00:08:52 14° 203° (SSW) 4,067 13.3 -66.5°
